FW0837 Weather Reports


Display with metric or nautical units.
time (UTC)temp
F
wind
direction
speed
MPH
gust
MPH
rain 1hr
in
rain 24hr
in
rain mn
in
humidity
%
barometer
mb
20260906113513 58 15 0.0 3.0 0.00 0.10 0.02 94 1015.6
20260906113013 57 14 0.0 3.0 0.00 0.10 0.02 93 1015.5
20260906112506 57 29 0.0 2.0 0.00 0.10 0.02 93 1015.4
20260906112005 57 29 0.0 3.0 0.00 0.10 0.02 93 1015.4
20260906111504 57 28 0.0 3.0 0.00 0.10 0.02 93 1015.4
20260906111003 56 39 0.0 2.0 0.00 0.10 0.02 93 1015.4
20260906110503 56 39 0.0 1.0 0.00 0.10 0.02 93 1015.4
20260906110002 56 39 0.0 1.0 0.00 0.10 0.02 93 1015.3
20260906105600 56 39 0.0 1.0 0.00 0.10 0.02 93 1015.3
20260906105102 56 39 0.0 2.0 0.00 0.10 0.02 93 1015.2
20260906104559 56 39 0.0 2.0 0.00 0.10 0.02 93 1015.2
20260906104057 56 39 0.0 1.0 0.00 0.10 0.02 93 1015.1
20260906103557 56 39 0.0 2.0 0.00 0.10 0.02 93 1015.0
20260906103055 56 39 0.0 2.0 0.00 0.10 0.02 93 1014.9
20260906102554 56 39 0.0 2.0 0.00 0.10 0.02 93 1014.8
20260906102054 56 39 0.0 2.0 0.00 0.10 0.02 93 1014.8
20260906101554 56 39 0.0 2.0 0.00 0.10 0.02 93 1014.7
20260906101053 56 39 0.0 3.0 0.00 0.10 0.02 93 1014.8
20260906100556 56 39 0.0 3.0 0.00 0.10 0.02 92 1014.7
20260906100059 56 39 0.0 2.0 0.00 0.10 0.02 93 1014.7
20260906095552 56 39 0.0 1.0 0.00 0.10 0.02 92 1014.7
20260906095051 56 39 0.0 1.0 0.00 0.10 0.02 92 1014.5
20260906094552 56 39 0.0 1.0 0.00 0.10 0.02 92 1014.6
20260906094052 56 39 0.0 2.0 0.01 0.10 0.02 92 1014.4
20260906093550 56 39 0.0 2.0 0.01 0.10 0.02 92 1014.5
20260906093051 56 39 0.0 2.0 0.01 0.10 0.02 92 1014.5
20260906092552 56 39 0.0 2.0 0.01 0.10 0.02 92 1014.4
20260906092049 57 39 0.0 1.0 0.01 0.10 0.02 93 1014.5
20260906091548 57 39 0.0 1.0 0.01 0.10 0.02 93 1014.4
20260906091048 57 39 0.0 1.0 0.01 0.10 0.02 93 1014.4
20260906090547 57 39 0.0 1.0 0.02 0.10 0.02 93 1014.5
20260906090047 57 39 0.0 4.0 0.02 0.10 0.02 93 1014.5
20260906085551 57 39 1.0 4.0 0.02 0.10 0.02 92 1014.5
20260906085046 57 33 0.0 4.0 0.02 0.10 0.02 92 1014.3
20260906084546 57 17 1.0 4.0 0.01 0.09 0.01 92 1014.4
20260906084045 57 16 1.0 5.0 0.01 0.09 0.01 93 1014.5
20260906083545 57 78 1.0 5.0 0.01 0.09 0.01 93 1013.9
20260906083044 57 51 1.0 3.0 0.01 0.09 0.01 93 1014.1
20260906082544 57 51 0.0 2.0 0.01 0.09 0.01 93 1014.3
20260906082045 57 51 0.0 2.0 0.01 0.09 0.01 92 1014.5
20260906081543 57 52 0.0 3.0 0.01 0.09 0.01 93 1014.3
20260906081042 58 52 0.0 3.0 0.01 0.09 0.01 92 1014.3
20260906080542 58 52 0.0 4.0 0.00 0.08 0.00 93 1014.4
20260906080043 58 52 0.0 4.0 0.00 0.08 0.00 93 1014.2
20260906075539 58 34 0.0 3.0 0.00 0.08 0.00 93 1014.0
20260906075042 58 69 0.0 2.0 0.00 0.08 0.00 93 1013.9
20260906074547 58 68 0.0 3.0 0.00 0.08 0.00 92 1013.9
20260906074037 58 68 0.0 3.0 0.00 0.08 0.00 92 1013.9
20260906073541 58 69 0.0 2.0 0.00 0.08 0.00 93 1013.9
20260906073036 58 68 0.0 2.0 0.00 0.08 0.00 93 1013.7
20260906072536 58 68 0.0 2.0 0.00 0.08 0.00 92 1013.8
20260906072036 59 68 0.0 3.0 0.00 0.08 0.00 93 1013.9
20260906071535 59 68 1.0 3.0 0.00 0.08 0.00 92 1013.8
20260906071035 59 69 0.0 2.0 0.00 0.08 0.00 93 1013.9
20260906070535 59 68 0.0 1.0 0.00 0.08 0.00 92 1013.9
20260906070036 59 69 0.0 2.0 0.00 0.08 0.00 92 1013.9
20260906065535 59 68 0.0 2.0 0.00 0.08 0.00 93 1013.9
20260906065034 59 68 0.0 2.0 0.00 0.08 0.00 92 1013.8
20260906064533 59 68 0.0 1.0 0.00 0.08 0.00 93 1013.7
20260906064033 59 69 0.0 1.0 0.00 0.08 0.00 93 1013.7
20260906063534 59 69 0.0 2.0 0.00 0.08 0.00 93 1013.7
20260906063036 59 68 0.0 2.0 0.00 0.08 0.00 93 1013.7
20260906062530 59 68 1.0 3.0 0.00 0.08 0.00 93 1013.6
20260906062030 60 68 0.0 3.0 0.00 0.08 0.00 93 1013.7
20260906061530 60 68 0.0 1.0 0.00 0.08 0.00 93 1013.8
20260906061029 60 69 0.0 2.0 0.00 0.08 0.00 93 1013.8
20260906060529 60 69 0.0 3.0 0.00 0.08 0.00 93 1013.7
20260906060028 60 68 0.0 1.0 0.00 0.08 0.00 93 1013.6
20260906055528 60 69 0.0 1.0 0.00 0.08 0.00 93 1013.6
20260906055027 60 68 0.0 0.0 0.00 0.08 0.00 93 1013.5
20260906054547 61 68 0.0 1.0 0.00 0.08 0.00 93 1013.5
20260906054026 61 68 0.0 2.0 0.00 0.08 0.00 93 1013.5
20260906053525 61 69 0.0 2.0 0.00 0.08 0.00 93 1013.6
20260906053025 61 68 0.0 3.0 0.00 0.08 0.00 93 1013.6
20260906052528 61 68 0.0 3.0 0.00 0.08 0.00 93 1013.7
20260906052025 61 68 0.0 1.0 0.00 0.08 0.00 93 1013.6
20260906051532 61 68 0.0 0.0 0.00 0.08 0.00 93 1013.7
20260906051024 61 68 0.0 2.0 0.00 0.08 0.00 93 1013.7
20260906050524 61 68 0.0 2.0 0.00 0.08 0.00 93 1013.7
20260906050029 61 68 0.0 2.0 0.00 0.08 0.00 93 1013.8
20260906045524 61 68 1.0 2.0 0.00 0.08 0.00 93 1013.7
20260906045023 61 68 0.0 1.0 0.00 0.08 0.00 93 1013.7
20260906044523 61 68 0.0 0.0 0.00 0.08 0.00 93 1013.6
20260906044022 61 69 0.0 0.0 0.00 0.08 0.00 93 1013.6
20260906043522 61 68 0.0 0.0 0.00 0.08 0.00 93 1013.6
20260906043022 61 68 0.0 0.0 0.00 0.08 0.00 93 1013.7
20260906042521 61 68 0.0 2.0 0.00 0.08 0.00 93 1013.7
20260906042021 61 68 0.0 2.0 0.00 0.08 0.00 93 1013.7
20260906041523 61 68 0.0 1.0 0.00 0.08 0.00 93 1013.7
20260906041020 61 69 0.0 0.0 0.00 0.08 0.00 93 1013.6
20260906040520 61 68 0.0 1.0 0.00 0.08 0.00 92 1013.7
20260906040020 61 68 0.0 2.0 0.00 0.08 0.00 92 1013.7
20260906035521 61 68 0.0 2.0 0.00 0.08 0.08 92 1013.6
20260906035019 61 69 0.0 2.0 0.00 0.08 0.08 92 1013.6
20260906034522 61 68 0.0 2.0 0.00 0.08 0.08 92 1013.6
20260906034019 61 68 0.0 0.0 0.00 0.08 0.08 92 1013.6
20260906033519 61 68 0.0 1.0 0.00 0.08 0.08 92 1013.6
20260906033019 61 68 0.0 1.0 0.00 0.08 0.08 92 1013.7
20260906032517 61 68 0.0 0.0 0.00 0.08 0.08 92 1013.6
20260906032018 61 68 0.0 0.0 0.00 0.08 0.08 92 1013.5
20260906031552 61 68 0.0 0.0 0.00 0.08 0.08 92 1013.4
20260906031019 61 68 0.0 0.0 0.00 0.08 0.08 92 1013.5
20260906030517 61 68 0.0 0.0 0.00 0.08 0.08 92 1013.6
20260906030016 61 68 0.0 0.0 0.00 0.08 0.08 92 1013.5
20260906025519 61 68 0.0 0.0 0.00 0.08 0.08 92 1013.5
20260906025019 61 69 0.0 0.0 0.00 0.08 0.08 92 1013.5
20260906024535 61 68 0.0 0.0 0.00 0.08 0.08 92 1013.5
20260906024017 61 68 0.0 0.0 0.00 0.08 0.08 92 1013.5
20260906023520 61 68 0.0 0.0 0.00 0.08 0.08 92 1013.4
20260906023014 61 68 0.0 0.0 0.00 0.08 0.08 92 1013.5
20260906022514 61 68 0.0 1.0 0.00 0.08 0.08 92 1013.4
20260906022015 62 68 0.0 1.0 0.00 0.08 0.08 92 1013.4
20260906021515 62 68 0.0 0.0 0.00 0.08 0.08 92 1013.5
20260906021014 62 69 0.0 0.0 0.00 0.08 0.08 92 1013.5
20260906020514 62 69 0.0 0.0 0.00 0.08 0.08 92 1013.4
20260906020014 62 68 0.0 0.0 0.00 0.08 0.08 92 1013.5
20260906015514 62 68 0.0 0.0 0.00 0.08 0.08 92 1013.5
20260906015014 62 68 0.0 0.0 0.00 0.08 0.08 92 1013.5
20260906014519 61 68 0.0 0.0 0.00 0.08 0.08 92 1013.6
20260906014015 61 68 0.0 1.0 0.00 0.08 0.08 92 1013.5
20260906013514 61 69 0.0 1.0 0.00 0.08 0.08 92 1013.5
20260906013013 61 69 0.0 1.0 0.00 0.08 0.08 92 1013.6
20260906012512 61 68 0.0 0.0 0.01 0.08 0.08 92 1013.5
20260906012012 62 68 0.0 1.0 0.01 0.08 0.08 92 1013.5
20260906011512 62 68 0.0 2.0 0.01 0.08 0.08 92 1013.6
20260906011013 62 69 0.0 2.0 0.01 0.08 0.08 92 1013.5
20260906010511 62 68 0.0 0.0 0.01 0.08 0.08 92 1013.3
20260906010026 62 68 0.0 0.0 0.01 0.08 0.08 92 1013.3
20260906005510 62 68 0.0 0.0 0.01 0.08 0.08 91 1013.2
20260906005010 62 68 0.0 1.0 0.01 0.08 0.08 91 1013.1
20260906004510 62 69 0.0 1.0 0.01 0.08 0.08 91 1013.1
20260906004008 62 68 0.0 2.0 0.01 0.08 0.08 91 1013.1
20260906003511 62 68 0.0 2.0 0.01 0.08 0.08 91 1013.0
20260906003007 62 68 0.0 0.0 0.01 0.08 0.08 91 1012.9
20260906002506 62 68 0.0 0.0 0.00 0.07 0.07 91 1012.9
20260906002010 62 68 0.0 0.0 0.00 0.07 0.07 91 1012.8
20260906001507 62 68 0.0 0.0 0.00 0.07 0.07 91 1012.9
20260906001006 62 68 0.0 2.0 0.00 0.07 0.07 91 1012.9
20260906000506 62 68 0.0 2.0 0.00 0.07 0.07 91 1012.9
20260906000011 62 68 0.0 0.0 0.00 0.07 0.07 91 1012.9
20260905235506 62 68 0.0 0.0 0.00 0.07 0.07 91 1012.9
20260905235006 62 68 0.0 0.0 0.00 0.07 0.07 91 1012.9
20260905234506 62 68 0.0 0.0 0.00 0.07 0.07 91 1012.9
20260905234006 62 68 0.0 0.0 0.00 0.07 0.07 91 1012.9
20260905233506 63 68 0.0 0.0 0.00 0.07 0.07 90 1012.9
20260905233006 63 68 0.0 1.0 0.00 0.07 0.07 91 1012.9
20260905232505 63 68 0.0 2.0 0.00 0.07 0.07 91 1012.8
20260905232006 63 68 0.0 2.0 0.00 0.07 0.07 90 1012.9
20260905231505 63 68 0.0 1.0 0.00 0.07 0.07 90 1012.8
20260905231003 63 68 0.0 1.0 0.00 0.07 0.07 90 1012.8
20260905230504 63 68 0.0 2.0 0.00 0.07 0.07 90 1012.7
20260905230006 63 68 0.0 3.0 0.00 0.07 0.07 90 1012.6
20260905225502 63 68 0.0 3.0 0.00 0.07 0.07 90 1012.4
20260905225003 63 68 1.0 3.0 0.00 0.07 0.07 90 1012.5
20260905224508 64 68 0.0 3.0 0.00 0.07 0.07 90 1012.5
20260905224003 64 68 1.0 3.0 0.00 0.07 0.07 90 1012.5
20260905223502 64 68 1.0 3.0 0.00 0.07 0.07 90 1012.5
20260905223002 64 68 0.0 3.0 0.00 0.07 0.07 90 1012.5
20260905222504 64 68 1.0 3.0 0.00 0.07 0.07 90 1012.5
20260905222003 64 69 0.0 3.0 0.00 0.07 0.07 90 1012.5
20260905221501 64 68 1.0 3.0 0.00 0.07 0.07 90 1012.5
20260905221102 64 68 1.0 3.0 0.00 0.07 0.07 90 1012.4
20260905220600 64 68 0.0 3.0 0.00 0.07 0.07 89 1012.4
20260905220059 65 68 0.0 3.0 0.00 0.07 0.07 89 1012.3
20260905215559 65 68 0.0 4.0 0.00 0.07 0.07 89 1012.3
20260905215058 65 68 1.0 5.0 0.00 0.07 0.07 89 1012.2
20260905214557 65 68 3.0 5.0 0.00 0.07 0.07 89 1012.1
20260905214057 65 64 2.0 5.0 0.00 0.07 0.07 90 1012.0
20260905213559 65 71 2.0 4.0 0.00 0.07 0.07 90 1012.0
20260905213101 65 71 2.0 3.0 0.00 0.07 0.07 90 1011.9
20260905212556 65 71 1.0 4.0 0.00 0.07 0.07 91 1011.9
20260905212056 65 71 1.0 4.0 0.00 0.07 0.07 91 1011.9
20260905211608 64 71 2.0 4.0 0.00 0.07 0.07 91 1012.0
20260905211056 64 71 2.0 4.0 0.01 0.07 0.07 91 1011.9
20260905210555 63 72 2.0 5.0 0.03 0.07 0.07 90 1011.9
20260905210103 63 71 2.0 5.0 0.04 0.07 0.07 90 1012.0
20260905205555 64 73 2.0 5.0 0.05 0.07 0.07 90 1011.9
20260905205055 64 73 1.0 4.0 0.06 0.07 0.07 90 1011.9
20260905204600 63 72 0.0 3.0 0.07 0.07 0.07 90 1011.7
20260905204057 63 73 0.0 4.0 0.07 0.07 0.07 90 1011.8
20260905203554 63 72 2.0 4.0 0.07 0.07 0.07 89 1011.8
20260905203059 64 77 1.0 4.0 0.07 0.07 0.07 90 1011.7
20260905202552 63 83 0.0 3.0 0.07 0.07 0.07 89 1011.7
20260905202052 64 83 0.0 4.0 0.07 0.07 0.07 89 1011.7
20260905201557 63 83 0.0 6.0 0.07 0.07 0.07 89 1011.8
20260905201052 64 91 1.0 6.0 0.06 0.06 0.06 88 1011.7
20260905200551 64 89 1.0 6.0 0.04 0.04 0.04 88 1011.7
20260905200109 64 84 3.0 8.0 0.03 0.03 0.03 87 1011.7
20260905195551 65 90 4.0 8.0 0.02 0.02 0.02 86 1011.7
20260905195050 66 56 2.0 7.0 0.01 0.01 0.01 84 1011.7
20260905194550 67 63 3.0 7.0 0.00 0.00 0.00 82 1011.5
20260905194051 68 66 3.0 14.0 0.00 0.00 0.00 80 1011.4
20260905193550 69 73 5.0 14.0 0.00 0.00 0.00 77 1011.2
20260905193047 70 88 4.0 13.0 0.00 0.00 0.00 76 1011.1
20260905192547 71 60 6.0 13.0 0.00 0.00 0.00 74 1011.0
20260905192047 71 73 3.0 10.0 0.00 0.00 0.00 75 1010.9
20260905191549 71 77 2.0 6.0 0.00 0.00 0.00 75 1010.9
20260905191050 71 77 3.0 6.0 0.00 0.00 0.00 74 1010.9
20260905190547 71 69 2.0 6.0 0.00 0.00 0.00 74 1010.9
20260905190047 71 68 2.0 6.0 0.00 0.00 0.00 74 1010.9
20260905185546 72 100 1.0 6.0 0.00 0.00 0.00 74 1011.0
20260905185046 71 73 1.0 8.0 0.00 0.00 0.00 75 1011.0
20260905184546 70 84 3.0 8.0 0.00 0.00 0.00 75 1010.9
20260905184048 71 89 3.0 8.0 0.00 0.00 0.00 75 1010.9
20260905183546 72 69 2.0 8.0 0.00 0.00 0.00 72 1010.8
20260905183046 73 53 1.0 6.0 0.00 0.00 0.00 73 1010.8
20260905182544 73 54 2.0 10.0 0.00 0.00 0.00 73 1010.8
20260905182045 73 33 3.0 9.0 0.00 0.00 0.00 72 1010.8
20260905181544 74 67 3.0 8.0 0.00 0.00 0.00 70 1010.9
20260905181043 73 9 2.0 10.0 0.00 0.00 0.00 72 1010.9
20260905180546 73 62 4.0 10.0 0.00 0.00 0.00 73 1010.9
20260905180049 72 98 3.0 8.0 0.00 0.00 0.00 74 1011.0
20260905175543 72 65 2.0 9.0 0.00 0.00 0.00 73 1011.1
20260905175045 72 19 2.0 11.0 0.00 0.00 0.00 76 1011.0
20260905174550 72 54 4.0 11.0 0.00 0.00 0.00 75 1011.0
20260905174041 71 109 3.0 10.0 0.00 0.00 0.00 77 1010.9
20260905173543 73 81 6.0 10.0 0.00 0.00 0.00 71 1010.9
20260905173055 73 93 3.0 8.0 0.00 0.00 0.00 72 1010.7
20260905172540 72 86 3.0 8.0 0.00 0.00 0.00 73 1010.8
20260905172043 72 76 3.0 11.0 0.00 0.00 0.00 71 1010.8
20260905171540 72 60 2.0 12.0 0.00 0.00 0.00 73 1010.7
20260905171039 73 68 3.0 12.0 0.00 0.00 0.00 72 1010.6
20260905170539 73 34 3.0 10.0 0.00 0.00 0.00 74 1010.6
20260905170039 71 95 4.0 11.0 0.00 0.00 0.00 75 1010.7
20260905165538 71 104 5.0 11.0 0.00 0.00 0.00 73 1010.6
20260905165041 72 85 4.0 10.0 0.00 0.00 0.00 71 1010.6
20260905164538 72 310 4.0 10.0 0.00 0.00 0.00 71 1010.7
20260905164038 73 61 1.0 12.0 0.00 0.00 0.00 70 1010.7
20260905163537 73 66 3.0 12.0 0.00 0.00 0.00 69 1010.6
20260905163036 74 62 2.0 13.0 0.00 0.00 0.00 70 1010.7
20260905162535 75 111 5.0 13.0 0.00 0.00 0.00 68 1010.6
20260905162034 75 51 1.0 10.0 0.00 0.00 0.00 70 1010.7
20260905161535 75 64 3.0 6.0 0.00 0.00 0.00 68 1010.7
20260905161033 74 51 0.0 13.0 0.00 0.00 0.00 73 1010.8
20260905160533 72 74 6.0 13.0 0.00 0.00 0.00 71 1010.7
20260905160035 72 77 3.0 8.0 0.00 0.00 0.00 73 1010.7
20260905155532 72 90 3.0 8.0 0.00 0.00 0.00 70 1010.8
20260905155032 73 79 2.0 6.0 0.00 0.00 0.00 72 1010.8
20260905154534 73 52 1.0 9.0 0.00 0.00 0.00 71 1010.8
20260905154036 73 73 3.0 11.0 0.00 0.00 0.00 70 1010.8
20260905153531 73 89 6.0 11.0 0.00 0.00 0.00 69 1010.8
20260905153030 73 90 3.0 11.0 0.00 0.00 0.00 71 1010.8
20260905152529 72 60 2.0 6.0 0.00 0.00 0.00 73 1010.7
20260905152031 72 50 2.0 8.0 0.00 0.00 0.00 75 1010.7
20260905151528 72 305 2.0 7.0 0.00 0.00 0.00 73 1010.7
20260905151032 72 60 1.0 5.0 0.00 0.00 0.00 74 1010.7
20260905150526 71 60 1.0 6.0 0.00 0.00 0.00 75 1010.7
20260905150026 70 67 2.0 8.0 0.00 0.00 0.00 75 1010.7
20260905145526 70 77 2.0 8.0 0.00 0.00 0.00 75 1010.8
20260905145025 71 40 2.0 6.0 0.00 0.00 0.00 75 1010.9
20260905144525 71 68 3.0 5.0 0.00 0.00 0.00 75 1010.7
20260905144024 71 75 2.0 8.0 0.00 0.00 0.00 76 1010.6
20260905143523 70 74 1.0 8.0 0.00 0.00 0.00 77 1010.6
20260905143027 69 78 2.0 11.0 0.00 0.00 0.00 77 1010.7
20260905142521 69 66 3.0 8.0 0.00 0.00 0.00 78 1010.7
20260905142026 69 61 3.0 7.0 0.00 0.00 0.00 78 1010.7
20260905141526 69 37 1.0 6.0 0.00 0.00 0.00 78 1010.7
20260905141023 69 70 2.0 6.0 0.00 0.00 0.00 78 1010.7
20260905140522 69 75 1.0 11.0 0.00 0.00 0.00 78 1010.6
20260905140018 69 37 4.0 11.0 0.00 0.00 0.00 78 1010.6
20260905135517 69 62 4.0 10.0 0.00 0.00 0.00 79 1010.6
20260905135016 69 53 3.0 10.0 0.00 0.00 0.00 79 1010.5
20260905134515 68 56 2.0 6.0 0.00 0.00 0.00 80 1010.5
20260905134016 68 65 0.0 5.0 0.00 0.00 0.00 81 1010.4
20260905133513 68 65 1.0 5.0 0.00 0.00 0.00 83 1010.4
20260905133011 67 66 2.0 5.0 0.00 0.00 0.00 82 1010.4
20260905132511 67 64 0.0 4.0 0.00 0.00 0.00 83 1010.3
20260905132010 67 64 0.0 4.0 0.00 0.00 0.00 84 1010.2
20260905131509 66 64 1.0 4.0 0.00 0.00 0.00 84 1010.2
20260905131008 66 64 0.0 3.0 0.00 0.00 0.00 84 1010.2
20260905130508 66 64 0.0 3.0 0.00 0.00 0.00 84 1010.3
20260905130007 66 64 1.0 5.0 0.00 0.00 0.00 85 1010.2
20260905125506 66 64 2.0 6.0 0.00 0.00 0.00 85 1010.2
20260905125006 66 65 1.0 6.0 0.00 0.00 0.00 85 1010.2
20260905124510 66 66 1.0 10.0 0.00 0.00 0.00 85 1010.2
20260905124006 66 90 2.0 6.0 0.00 0.00 0.00 86 1010.1
20260905123504 66 48 0.0 3.0 0.00 0.00 0.00 86 1010.0
20260905123003 65 48 0.0 8.0 0.00 0.00 0.00 87 1010.0
20260905122503 65 335 1.0 8.0 0.00 0.00 0.00 87 1009.9
20260905122100 65 320 1.0 8.0 0.00 0.00 0.00 87 1009.8
20260905121600 64 289 0.0 3.0 0.00 0.00 0.00 87 1009.7
20260905121058 64 290 1.0 5.0 0.00 0.00 0.00 87 1009.7
20260905120557 64 290 1.0 5.0 0.00 0.00 0.00 87 1009.6
20260905120056 64 289 2.0 5.0 0.00 0.00 0.00 87 1009.6
20260905115555 64 285 3.0 5.0 0.00 0.00 0.00 87 1009.6
20260905115053 64 345 0.0 6.0 0.00 0.00 0.00 87 1009.5
20260905114553 63 262 0.0 6.0 0.00 0.00 0.00 87 1009.5
20260905114051 63 298 2.0 6.0 0.00 0.00 0.00 87 1009.4